TimeMST,TemperatureF,Dew PointF,Humidity,Sea Level PressureIn,VisibilityMPH,Wind Direction,Wind SpeedMPH,Gust SpeedMPH,PrecipitationIn,Events,Conditions,WindDirDegrees,DateUTC
12:53 AM,24.1,16.0,71,29.97,10.0,SSW,13.8,-,N/A,,Overcast,200,2013-11-04 07:53:00
1:53 AM,24.1,16.0,71,29.98,10.0,SSW,9.2,-,N/A,,Overcast,200,2013-11-04 08:53:00
2:53 AM,24.1,17.1,75,29.98,10.0,SSW,11.5,-,N/A,,Overcast,210,2013-11-04 09:53:00
3:53 AM,23.0,16.0,74,29.98,10.0,SSW,9.2,-,N/A,,Overcast,200,2013-11-04 10:53:00
4:53 AM,23.0,15.1,72,30.00,10.0,SSE,5.8,-,N/A,,Overcast,160,2013-11-04 11:53:00
5:53 AM,23.0,15.1,72,30.02,10.0,SSW,8.1,-,N/A,,Overcast,200,2013-11-04 12:53:00
6:53 AM,21.9,15.1,75,30.01,10.0,SSW,5.8,-,N/A,,Overcast,200,2013-11-04 13:53:00
7:53 AM,21.9,15.1,75,30.03,10.0,SW,4.6,-,N/A,,Mostly Cloudy,220,2013-11-04 14:53:00
8:53 AM,26.1,17.1,69,30.02,10.0,SSW,5.8,-,N/A,,Scattered Clouds,200,2013-11-04 15:53:00
9:53 AM,30.0,16.0,56,30.02,10.0,SSW,8.1,-,N/A,,Clear,200,2013-11-04 16:53:00
10:53 AM,32.0,12.0,44,30.01,10.0,SSW,8.1,-,N/A,,Scattered Clouds,210,2013-11-04 17:53:00
11:53 AM,34.0,12.0,40,29.99,10.0,SSW,10.4,-,N/A,,Mostly Cloudy,200,2013-11-04 18:53:00
12:53 PM,36.0,10.9,36,29.97,10.0,WSW,15.0,-,N/A,,Overcast,240,2013-11-04 19:53:00
1:53 PM,35.1,10.0,35,29.97,10.0,WSW,12.7,-,N/A,,Mostly Cloudy,240,2013-11-04 20:53:00
2:53 PM,33.1,12.0,42,30.00,10.0,Variable,4.6,-,N/A,,Scattered Clouds,0,2013-11-04 21:53:00
3:53 PM,30.0,16.0,56,30.04,10.0,SSW,12.7,-,0.00,,Overcast,200,2013-11-04 22:53:00
4:53 PM,27.0,16.0,63,30.07,10.0,Calm,Calm,-,N/A,,Partly Cloudy,0,2013-11-04 23:53:00
5:53 PM,23.0,16.0,74,30.10,10.0,ESE,8.1,-,N/A,,Clear,120,2013-11-05 00:53:00
6:53 PM,24.1,14.0,65,30.12,10.0,South,9.2,-,N/A,,Clear,190,2013-11-05 01:53:00
7:53 PM,17.1,12.9,84,30.17,10.0,SSW,3.5,-,N/A,,Clear,210,2013-11-05 02:53:00
8:53 PM,19.0,16.0,88,30.16,10.0,WSW,4.6,-,N/A,,Mostly Cloudy,250,2013-11-05 03:53:00
9:53 PM,21.0,15.1,78,30.15,10.0,SSW,4.6,-,N/A,,Mostly Cloudy,210,2013-11-05 04:53:00
10:53 PM,21.9,16.0,78,30.16,10.0,SSW,4.6,-,N/A,,Overcast,210,2013-11-05 05:53:00
11:53 PM,21.0,12.9,71,30.15,10.0,South,8.1,-,0.00,,Mostly Cloudy,190,2013-11-05 06:53:00